Location: Goettingen
(51.5300°N, 9.9433°E)
Time: 00:46:26
(UTC+02:00)

ISS - Pass Details

Date: 26 May 2017
Orbit: 402 x 408 km, 51.6° (Epoch: 30 May)

Event Time Altitude Azimuth Distance (km) Brightness Sun altitude
Rises 01:48:20 0° 278° (W) 2,334 0.0 -17.0°
Reaches altitude 10° 01:50:25 10° 278° (W) 1,471 -1.0 -17.0°
Maximum altitude 01:53:43 82° 190° (S) 415 -4.0 -16.9°
Drops below altitude 10° 01:57:00 10° 104° (ESE) 1,464 -1.0 -16.8°
Sets 01:59:05 0° 103° (ESE) 2,322 0.0 -16.8°
